METEOR 2-11 DEB, 40704

Orbit data source: Space-Track

METEOR 2-11 DEB, 40704 is space debris in LEO originally from a launch on Thu, 05 Jul 1984 UTC launched from the Plesetsk Missile And Space Complex (PKMTR). Debris objects in space refer to the collection of defunct objects orbiting the Earth. Examples of debris include non-operational satellites, rocket bodies, and fragments generated from explosions, collisions, or faulty payload assembly.

Loading next visibility...
Identifier
40704, 1984-072F
Orbit
LEO
Country
Flag of CISCIS
Related business
Manufacturer
Unknown
Mission
Spacecraft
Bus & Motor
Unknown
Mass
Unknown
Launch date (UTC)
1984-07-05 (41 years ago)
Launch vehicle
Unknown
Launch site
Plesetsk Missile And Space Complex (PKMTR)
Object type
Payload
Rocket body
Debris
Shape & HBR
Unknown shape, 0.1 m
Radar Cross Section
Small (<0.1 m²)

Expand to show TLE details & history
Last TLE update: 15 hours ago

TLE from 15 hours ago
0 METEOR 2-11 DEB
1 40704U 84072F   25348.20515143  .00003504  00000-0  24292-2 0  9992
2 40704  82.5179 156.6876 0025905 151.1854 209.0752 13.98520061541521
Epoch: 2025-12-14T04:55Z
TLE epoch observation values (Epoch: 2025-12-14T04:55:25.083Z)
Latitude
0.00003°
Longitude
-0.28832°
Altitude
918.336 km
Speed
7.384 km/s
True Right ascension
10h 26m 45s
True Declination
0° 00' 00"
Sunlit
Object was in daylight at epoch
Visualization orbit readout
Latitude
Unknown
Longitude
Unknown
Altitude
Unknown
Speed
Unknown
Apparent Right ascension
Unknown
Apparent Declination
Unknown
Sunlit
N/A
Visualization observer readout
Local Sidereal Time
18:33:41
Azimuth
Unknown
Elevation
Unknown
Doppler factor
Unknown
Orbital elements
Apogee altitude
914.901 km
Perigee altitude
877.214 km
Semi-major axis
7,274.195 km
Eccentricity
0.00259
Inclination
82.5179°
RAAN
156.6876°
Arg. of periapsis
151.1854°
True anomaly
208.93135°
Mean anomaly
209.0752°
Eccentric anomaly
209.00323°
Mean motion
3.49837 °/min
Orbital period
102.91 mins
BSTAR
0.0024292
Loading maneuver chart data...
Computing Atmospheric mass density...
Loading historical data...
Loading historical data...
Loading historical data...
Loading historical data...
Loading historical data...
Loading historical data...
Loading historical data...

Documentation

Showing up to 5 results
|